ORBCOMM FM106 [-] (40088 NORAD) Tracking and Keplerian Element Data

This shows tracking and keplerian element data for the satellite.

Feedback or suggestion? Click here.




ElementValue
Catalog40088
NameORBCOMM FM106 [-]
Epoch Orbit21305
Epoch Day198.89696531
Epoch Year2018
RAAN12.7695
Inclination47.0158
Eccentricity0.0008884
Argument of Perigee24.3691
Mean Anonmoly335.7613
Mean Motion14.58205403
Decay Rate-9.5E-07
L11 40088U 14040C 18198.89696531 -.00000095 00000-0 16570-4 0 9991
L22 40088 47.0158 12.7695 0008884 24.3691 335.7613 14.58205403213051

Live tracking and technical data element details for ORBCOMM FM106 [-] (NORAD 40088). ORBCOMM FM106 [-] can be tracked NOW for your location showing map with azimuth and elevation plus other details from your city location.

Track the satellite on the map from your city or location and see movement details for azimuth, elevation, latitude, longitude, range, height, and movement on the map or in text.







IsCatalogInMostPopularTable: catalog: 40088, numindb: 56
Update: records affected: 1



GetName: 40088 ORBCOMM FM106 [-]

Hit Count: updated at: Fri, 20 Jul 2018 20:37:24 GMT